Total_Precipitation_Accumulation
0.00 0.00 0.00 0.00 0.00 0.00 0.00 0.00 0.00 0.00 0.00 0.00 0.00 0.00 0.00 0.00 0.00 0.00 0.00 0.00 0.00 0.00 0.00 0.00 0.00 0.00 0.00 0.00 0.00 0.00 0.01 0.07 0.02 0.08 0.24 0.08 0.05 0.02 0.02 0.02 0.06 0.13 0.12 0.15 0.05 0.06 0.05 0.04 0.04 0.01 0.00 0.00 0.00 0.00 0.00 0.00 0.00 0.00 0.00 0.00 0.00 0.00 0.01 0.01 0.03 0.02 0.00 0.00 0.00 0.00 0.00 0.00 0.00 0.00 0.00 0.00 0.00 0.01 0.01 0.03 0.02 0.03 0.07 0.03 0.02 0.02 0.01 0.01 0.01 0.00 0.00 0.00 0.00 0.00 0.00 0.00 0.00
0.00 0.00 0.00 0.00 0.00 0.00 0.00 0.00 0.00 0.00 0.00 0.00 0.00 0.00 0.00 0.00 0.00 0.00 0.00 0.00 0.00 0.00 0.00 0.00 0.00 0.00 0.00 0.00 0.00 0.00 0.00 0.02 0.00 0.02 0.08 0.08 0.05 0.02 0.02 0.23 0.44 0.30 0.21 0.07 0.07 0.05 0.06 0.05 0.07 0.01 0.01 0.01 0.00 0.00 0.00 0.00 0.00 0.00 0.00 0.01 0.00 0.00 0.00 0.00 0.02 0.00 0.00 0.00 0.00 0.00 0.00 0.00 0.00 0.00 0.00 0.00 0.00 0.01 0.00 0.03 0.06 0.04 0.05 0.01 0.00 0.00 0.00 0.00 0.00 0.00 0.00 0.00 0.00 0.01 0.00 0.00 0.00
0.00 0.00 0.00 0.00 0.00 0.00 0.00 0.00 0.00 0.00 0.00 0.00 0.00 0.00 0.00 0.00 0.00 0.00 0.00 0.00 0.00 0.00 0.00 0.00 0.00 0.00 0.00 0.00 0.00 0.05 0.21 0.03 0.01 0.02 0.11 0.06 0.04 0.11 0.07 0.35 0.28 0.31 0.27 0.23 0.10 0.04 0.09 0.05 0.09 0.03 0.04 0.02 0.01 0.00 0.00 0.00 0.00 0.00 0.00 0.00 0.00 0.00 0.00 0.00 0.00 0.00 0.00 0.00 0.00 0.00 0.00 0.00 0.00 0.00 0.00 0.00 0.00 0.01 0.01 0.02 0.04 0.05 0.02 0.00 0.00 0.00 0.00 0.01 0.01 0.01 0.01 0.02 0.01 0.01 0.01 0.01 0.01
0.00 0.00 0.00 0.00 0.00 0.00 0.00 0.00 0.00 0.00 0.00 0.00 0.00 0.00 0.00 0.00 0.00 0.00 0.00 0.00 0.00 0.00 0.00 0.00 0.01 0.00 0.00 0.00 0.01 0.00 0.02 0.02 0.03 0.01 0.10 0.10 0.06 0.08 0.10 0.27 0.20 0.27 0.29 0.24 0.15 0.13 0.08 0.07 0.09 0.07 0.04 0.01 0.01 0.01 0.00 0.00 0.00 0.00 0.00 0.00 0.00 0.00 0.00 0.00 0.00 0.00 0.00 0.00 0.00 0.00 0.00 0.01 0.00 0.00 0.01 0.02 0.01 0.01 0.00 0.02 0.00 0.00 0.00 0.00 0.00 0.01 0.02 0.05 0.02 0.01 0.01 0.01 0.00 0.01 0.01 0.01 0.02
0.00 0.00 0.00 0.00 0.00 0.00 0.00 0.00 0.00 0.00 0.00 0.00 0.00 0.00 0.00 0.00 0.00 0.00 0.00 0.00 0.00 0.00 0.00 0.00 0.00 0.00 0.00 0.01 0.01 0.04 0.03 0.04 0.04 0.03 0.04 0.04 0.03 0.07 0.33 0.56 0.49 0.38 0.18 0.22 0.15 0.14 0.14 0.08 0.05 0.17 0.06 0.04 0.02 0.01 0.01 0.00 0.00 0.00 0.00 0.00 0.00 0.00 0.00 0.00 0.00 0.00 0.00 0.00 0.00 0.01 0.01 0.03 0.03 0.02 0.03 0.01 0.00 0.00 0.01 0.01 0.00 0.00 0.00 0.01 0.01 0.00 0.01 0.00 0.00 0.02 0.00 0.01 0.01 0.02 0.03 0.01 0.02
0.00 0.00 0.00 0.00 0.00 0.00 0.00 0.00 0.00 0.00 0.00 0.00 0.00 0.00 0.00 0.00 0.00 0.00 0.00 0.00 0.00 0.00 0.00 0.00 0.01 0.00 0.01 0.03 0.12 0.06 0.05 0.09 0.02 0.04 0.03 0.06 0.05 0.31 0.43 0.51 0.32 0.27 0.23 0.32 0.25 0.20 0.23 0.04 0.06 0.12 0.11 0.12 0.07 0.11 0.01 0.01 0.00 0.00 0.00 0.00 0.00 0.00 0.00 0.00 0.00 0.00 0.01 0.00 0.00 0.01 0.01 0.04 0.03 0.06 0.08 0.04 0.03 0.04 0.04 0.01 0.00 0.00 0.01 0.01 0.01 0.01 0.01 0.00 0.00 0.00 0.00 0.01 0.03 0.03 0.00 0.01 0.01
0.00 0.00 0.00 0.00 0.00 0.00 0.00 0.00 0.00 0.00 0.00 0.00 0.00 0.00 0.00 0.00 0.00 0.00 0.00 0.00 0.00 0.00 0.00 0.00 0.00 0.01 0.09 0.02 0.02 0.02 0.03 0.05 0.05 0.05 0.05 0.07 0.11 0.32 0.42 0.23 0.20 0.36 0.41 0.24 0.15 0.14 0.21 0.04 0.08 0.15 0.14 0.13 0.15 0.13 0.06 0.03 0.01 0.00 0.00 0.00 0.01 0.01 0.00 0.00 0.00 0.01 0.01 0.02 0.01 0.02 0.02 0.03 0.02 0.02 0.08 0.10 0.02 0.04 0.07 0.01 0.02 0.02 0.05 0.02 0.01 0.01 0.01 0.01 0.00 0.00 0.01 0.02 0.01 0.00 0.01 0.01 0.02
0.00 0.00 0.00 0.00 0.00 0.00 0.00 0.00 0.00 0.00 0.00 0.00 0.00 0.00 0.00 0.00 0.00 0.00 0.00 0.00 0.00 0.00 0.00 0.00 0.00 0.00 0.60 0.01 0.18 0.03 0.03 0.02 0.06 0.03 0.03 0.08 0.38 0.36 0.32 0.20 0.22 0.55 0.25 0.24 0.15 0.12 0.27 0.06 0.04 0.04 0.09 0.14 0.11 0.26 0.17 0.10 0.02 0.03 0.00 0.00 0.01 0.00 0.01 0.00 0.00 0.01 0.01 0.04 0.04 0.01 0.02 0.03 0.01 0.01 0.06 0.03 0.06 0.04 0.04 0.02 0.01 0.07 0.04 0.01 0.01 0.01 0.01 0.00 0.00 0.00 0.02 0.02 0.01 0.00 0.01 0.03 0.00
0.00 0.00 0.00 0.00 0.00 0.00 0.00 0.00 0.00 0.00 0.00 0.00 0.00 0.00 0.00 0.00 0.00 0.00 0.00 0.00 0.00 0.00 0.00 0.00 0.00 0.10 0.33 0.08 0.21 0.13 0.06 0.07 0.04 0.03 0.03 0.22 0.53 0.49 0.64 0.14 0.40 0.32 0.31 0.36 0.19 0.18 0.18 0.05 0.03 0.03 0.04 0.03 0.11 0.14 0.15 0.12 0.05 0.02 0.02 0.00 0.00 0.00 0.00 0.00 0.00 0.01 0.02 0.03 0.07 0.13 0.03 0.02 0.01 0.01 0.01 0.02 0.11 0.07 0.05 0.03 0.01 0.04 0.02 0.01 0.01 0.03 0.02 0.03 0.02 0.04 0.02 0.01 0.01 0.00 0.00 0.00 0.00
0.00 0.00 0.00 0.00 0.00 0.00 0.00 0.00 0.00 0.00 0.00 0.00 0.00 0.00 0.00 0.00 0.00 0.00 0.00 0.00 0.00 0.00 0.00 0.00 0.00 0.02 0.01 0.57 0.16 0.20 0.25 0.17 0.20 0.14 0.12 0.34 1.06 1.15 0.71 0.96 0.30 0.65 0.51 0.42 0.33 0.26 0.20 0.34 0.04 0.03 0.04 0.01 0.04 0.13 0.13 0.12 0.06 0.00 0.01 0.00 0.00 0.00 0.00 0.00 0.00 0.01 0.01 0.01 0.06 0.07 0.05 0.01 0.01 0.01 0.01 0.02 0.08 0.17 0.04 0.01 0.01 0.02 0.01 0.01 0.02 0.02 0.01 0.02 0.02 0.03 0.02 0.01 0.00 0.00 0.00 0.00 0.00
0.00 0.00 0.00 0.00 0.00 0.00 0.00 0.00 0.00 0.00 0.00 0.00 0.00 0.00 0.00 0.00 0.00 0.00 0.00 0.00 0.00 0.00 0.00 0.00 0.01 0.01 0.03 0.27 0.38 0.21 0.47 0.19 0.15 0.28 0.37 0.44 0.77 1.01 1.80 0.89 0.62 0.57 0.82 0.61 0.71 0.46 0.24 0.48 0.19 0.05 0.07 0.08 0.03 0.05 0.15 0.18 0.17 0.05 0.00 0.00 0.00 0.01 0.01 0.01 0.01 0.03 0.02 0.04 0.04 0.05 0.11 0.02 0.03 0.01 0.03 0.06 0.08 0.02 0.01 0.01 0.01 0.03 0.02 0.01 0.01 0.00 0.00 0.01 0.01 0.01 0.01 0.00 0.00 0.00 0.00 0.00 0.00
0.00 0.00 0.00 0.00 0.00 0.00 0.00 0.00 0.00 0.00 0.00 0.00 0.00 0.00 0.00 0.00 0.00 0.00 0.00 0.00 0.00 0.00 0.01 0.00 0.04 0.00 0.07 0.08 0.21 0.76 0.57 0.43 0.89 0.44 0.48 1.02 0.77 0.44 0.75 0.38 0.33 0.64 0.70 1.17 0.56 0.47 0.53 0.48 0.53 0.34 0.16 0.15 0.17 0.14 0.32 0.26 0.20 0.15 0.03 0.01 0.00 0.00 0.00 0.01 0.03 0.06 0.01 0.03 0.03 0.02 0.05 0.02 0.02 0.02 0.01 0.01 0.01 0.02 0.01 0.02 0.06 0.06 0.01 0.01 0.04 0.01 0.01 0.02 0.02 0.00 0.00 0.00 0.00 0.00 0.00 0.00 0.00
0.00 0.00 0.00 0.00 0.00 0.00 0.00 0.00 0.00 0.00 0.00 0.00 0.00 0.00 0.00 0.00 0.00 0.00 0.00 0.00 0.00 0.00 0.00 0.00 0.00 0.00 0.33 0.14 0.21 0.42 0.64 0.74 0.55 0.66 0.66 0.87 0.47 0.42 0.49 0.32 0.75 0.75 0.47 0.72 0.46 0.29 0.28 0.36 0.34 0.38 0.30 0.23 0.27 0.29 0.24 0.21 0.09 0.12 0.15 0.05 0.06 0.05 0.01 0.03 0.05 0.03 0.02 0.02 0.02 0.01 0.01 0.01 0.00 0.01 0.01 0.00 0.00 0.00 0.00 0.04 0.02 0.01 0.00 0.00 0.01 0.03 0.00 0.00 0.00 0.00 0.00 0.00 0.00 0.00 0.00 0.00 0.00
0.00 0.00 0.00 0.00 0.00 0.00 0.00 0.00 0.00 0.00 0.00 0.00 0.00 0.00 0.00 0.00 0.00 0.00 0.00 0.00 0.00 0.00 0.00 0.00 0.00 0.02 0.33 0.07 0.37 0.52 0.45 0.39 0.18 0.26 0.36 0.85 0.61 0.45 0.58 0.41 1.32 1.00 0.95 0.58 0.36 0.25 0.25 0.27 0.35 0.33 0.54 0.50 0.67 0.32 0.14 0.16 0.21 0.13 0.19 0.31 0.16 0.08 0.08 0.12 0.11 0.04 0.04 0.02 0.02 0.01 0.02 0.02 0.04 0.02 0.02 0.02 0.01 0.00 0.00 0.01 0.01 0.00 0.00 0.00 0.00 0.02 0.03 0.03 0.03 0.04 0.07 0.01 0.00 0.00 0.00 0.00 0.00
0.00 0.00 0.00 0.00 0.00 0.00 0.00 0.00 0.00 0.00 0.00 0.00 0.00 0.00 0.00 0.00 0.00 0.00 0.00 0.00 0.00 0.00 0.00 0.00 0.00 0.03 0.94 0.10 0.13 0.13 0.27 0.13 0.21 0.62 0.68 0.11 0.12 0.60 0.59 1.22 1.21 0.91 0.84 0.87 0.52 0.48 0.49 0.32 0.27 0.39 0.43 0.48 0.70 0.98 1.26 0.63 0.61 0.84 0.60 0.25 0.31 0.36 0.19 0.56 0.46 0.21 0.06 0.05 0.01 0.01 0.03 0.03 0.08 0.01 0.05 0.07 0.03 0.01 0.00 0.00 0.01 0.00 0.01 0.01 0.00 0.00 0.04 0.05 0.07 0.01 0.00 0.01 0.00 0.00 0.00 0.00 0.00
0.00 0.00 0.00 0.00 0.00 0.00 0.00 0.00 0.00 0.00 0.00 0.00 0.00 0.00 0.00 0.00 0.00 0.00 0.00 0.00 0.03 0.00 0.00 0.02 0.00 0.04 0.05 0.03 0.09 0.12 0.14 0.16 0.19 0.09 0.10 0.25 0.31 0.40 0.34 0.32 0.47 0.57 0.71 0.72 0.63 0.52 0.36 0.35 0.44 0.44 0.55 0.82 1.14 1.40 1.11 0.77 1.19 1.78 1.04 0.54 0.58 0.62 0.86 0.69 0.25 0.27 0.14 0.08 0.02 0.02 0.02 0.07 0.07 0.15 0.10 0.10 0.02 0.00 0.00 0.04 0.02 0.01 0.00 0.00 0.00 0.00 0.01 0.04 0.00 0.02 0.01 0.00 0.00 0.00 0.00 0.00 0.00
0.00 0.00 0.00 0.00 0.00 0.00 0.00 0.00 0.00 0.00 0.00 0.00 0.00 0.00 0.00 0.00 0.00 0.00 0.00 0.00 0.00 0.00 0.00 0.00 0.01 0.00 0.02 0.05 0.04 0.07 0.21 0.11 0.07 0.10 0.06 0.10 0.20 0.19 0.39 0.53 0.56 0.89 0.49 0.58 0.46 0.64 0.36 0.48 0.99 1.13 0.69 0.90 1.44 1.28 1.23 0.92 0.67 1.05 0.85 1.34 0.75 0.66 0.22 0.18 0.12 0.07 0.10 0.05 0.07 0.05 0.05 0.08 0.27 0.24 0.22 0.31 0.05 0.05 0.00 0.00 0.00 0.04 0.00 0.00 0.00 0.01 0.00 0.01 0.06 0.03 0.02 0.00 0.00 0.00 0.00 0.00 0.00
0.00 0.00 0.00 0.00 0.00 0.00 0.00 0.00 0.00 0.00 0.00 0.00 0.00 0.00 0.00 0.00 0.00 0.00 0.00 0.00 0.00 0.00 0.00 0.03 0.01 0.11 0.08 0.04 0.09 0.08 0.08 0.10 0.10 0.07 0.11 0.10 0.16 0.34 0.62 0.67 0.70 0.47 0.24 0.34 0.26 0.46 0.43 0.60 1.00 1.12 1.05 1.17 0.51 1.47 1.72 1.03 1.33 1.33 1.64 0.71 1.08 0.59 0.22 0.07 0.19 0.17 0.36 0.13 0.11 0.23 0.39 0.26 0.44 0.42 0.47 0.34 0.15 0.10 0.05 0.00 0.00 0.01 0.01 0.00 0.00 0.00 0.00 0.00 0.04 0.05 0.05 0.01 0.00 0.00 0.00 0.00 0.00
0.00 0.00 0.00 0.00 0.00 0.00 0.00 0.00 0.00 0.00 0.00 0.00 0.00 0.00 0.00 0.00 0.00 0.00 0.03 0.00 0.00 0.00 0.02 0.03 0.03 0.07 0.06 0.11 0.08 0.09 0.11 0.21 0.14 0.13 0.10 0.08 0.25 0.26 0.36 0.25 0.21 0.28 0.18 0.27 0.32 0.33 0.41 0.44 0.80 0.88 0.96 1.26 1.10 1.16 1.31 0.82 1.23 1.06 1.13 0.80 0.80 0.72 0.56 0.18 0.21 0.40 0.36 0.42 0.24 0.33 0.51 0.39 0.51 0.58 0.62 0.30 0.23 0.03 0.05 0.01 0.02 0.01 0.00 0.00 0.00 0.00 0.01 0.01 0.01 0.05 0.04 0.03 0.00 0.00 0.00 0.00 0.00
0.00 0.00 0.00 0.00 0.00 0.00 0.00 0.00 0.00 0.00 0.00 0.00 0.00 0.00 0.00 0.00 0.00 0.00 0.00 0.01 0.01 0.03 0.02 0.03 0.05 0.08 0.06 0.11 0.13 0.13 0.12 0.18 0.15 0.23 0.22 0.62 0.41 0.24 0.26 0.24 0.26 0.28 0.20 0.19 0.15 0.14 0.48 1.04 1.11 1.56 0.67 0.52 0.30 0.62 1.15 0.70 0.86 0.78 0.97 0.65 0.37 0.61 0.77 0.53 0.51 0.34 0.48 0.67 0.84 0.66 0.78 0.60 0.52 0.59 0.33 0.37 0.30 0.09 0.12 0.09 0.04 0.03 0.00 0.00 0.00 0.01 0.00 0.01 0.03 0.02 0.13 0.05 0.00 0.01 0.00 0.00 0.00
0.00 0.00 0.00 0.00 0.00 0.00 0.00 0.00 0.00 0.00 0.00 0.00 0.00 0.00 0.00 0.00 0.00 0.00 0.01 0.04 0.03 0.08 0.00 0.01 0.06 0.07 0.06 0.05 0.12 0.15 0.20 0.23 0.29 0.38 0.75 0.36 0.44 0.25 0.23 0.17 0.25 0.19 0.56 0.78 0.35 0.55 0.63 0.67 0.62 1.12 0.92 0.94 0.84 1.00 0.92 0.91 0.91 1.39 1.29 0.80 0.95 0.74 0.67 0.50 0.53 0.66 1.07 1.20 0.68 0.51 0.37 0.83 0.73 0.39 0.29 0.18 0.26 0.18 0.17 0.14 0.16 0.12 0.07 0.06 0.01 0.09 0.09 0.15 0.09 0.22 0.11 0.03 0.02 0.01 0.00 0.00 0.00
0.00 0.00 0.00 0.00 0.00 0.00 0.00 0.00 0.00 0.00 0.00 0.00 0.00 0.00 0.00 0.00 0.00 0.00 0.01 0.03 0.19 0.05 0.02 0.01 0.02 0.05 0.06 0.09 0.12 0.17 0.18 0.23 0.35 0.81 0.67 0.41 0.41 0.25 0.33 0.54 0.58 0.38 0.28 0.39 0.36 1.05 0.69 0.33 0.63 1.23 0.36 0.45 0.51 0.49 0.77 0.71 0.33 1.02 0.97 1.25 0.72 0.91 0.76 0.71 0.56 0.65 0.75 0.71 0.54 0.38 0.45 0.58 0.48 0.45 0.60 0.27 0.33 0.25 0.30 0.14 0.26 0.28 0.13 0.15 0.06 0.08 0.22 0.19 0.14 0.15 0.06 0.07 0.05 0.02 0.01 0.01 0.00
0.00 0.00 0.00 0.00 0.00 0.00 0.00 0.00 0.00 0.00 0.00 0.00 0.00 0.00 0.00 0.00 0.00 0.00 0.00 0.00 0.03 0.02 0.03 0.05 0.02 0.04 0.11 0.08 0.10 0.11 0.19 0.39 1.00 0.69 0.55 0.56 0.35 0.37 0.31 0.50 0.38 0.22 0.18 0.39 0.46 0.29 0.29 0.64 0.92 0.89 0.70 0.68 0.59 0.68 1.01 0.50 0.64 1.23 0.92 0.81 0.75 0.93 0.81 0.83 0.89 0.78 0.76 0.99 0.81 0.80 0.75 0.74 0.52 0.54 0.46 0.30 0.35 0.73 1.00 0.89 0.46 0.68 0.31 0.24 0.07 0.17 0.27 0.19 0.39 0.51 0.52 0.07 0.03 0.05 0.02 0.01 0.00
0.00 0.00 0.00 0.00 0.00 0.00 0.00 0.00 0.00 0.00 0.00 0.00 0.00 0.00 0.00 0.00 0.00 0.00 0.00 0.00 0.00 0.02 0.18 0.01 0.02 0.04 0.08 0.17 0.45 0.35 0.20 0.98 1.41 1.36 0.67 0.41 0.67 0.75 0.80 0.36 0.31 0.40 0.23 0.24 0.35 0.28 0.13 0.25 0.51 0.79 0.54 0.46 0.46 0.69 0.59 0.80 0.82 0.77 0.66 1.03 0.80 0.62 0.40 0.67 0.45 0.63 0.80 0.72 0.47 0.85 0.54 0.96 0.64 0.55 0.40 0.53 0.39 0.73 1.25 0.83 0.78 0.75 0.93 0.58 0.26 0.09 0.17 0.54 0.35 0.28 0.35 0.35 0.16 0.07 0.15 0.02 0.02
0.00 0.00 0.00 0.00 0.00 0.00 0.00 0.00 0.00 0.00 0.00 0.00 0.00 0.00 0.00 0.00 0.00 0.00 0.00 0.00 0.00 0.00 0.02 0.01 0.03 0.09 0.11 0.08 0.17 0.49 0.47 0.58 0.55 0.68 0.84 0.53 0.69 0.63 0.71 0.44 0.32 0.38 0.48 0.34 0.31 0.08 0.25 0.54 0.43 0.29 0.27 0.38 0.26 0.38 0.57 0.25 0.33 0.53 0.41 0.45 0.78 0.82 0.70 0.66 0.41 0.65 0.66 0.65 0.47 0.43 0.46 0.63 0.81 0.45 0.46 0.56 0.71 0.55 0.32 0.35 0.38 0.57 0.68 0.57 0.24 0.25 0.39 0.46 0.41 0.67 0.62 0.32 0.09 0.04 0.03 0.03 0.02
0.00 0.00 0.00 0.00 0.00 0.00 0.00 0.00 0.00 0.00 0.00 0.00 0.00 0.00 0.00 0.00 0.00 0.00 0.00 0.00 0.00 0.00 0.01 0.01 0.03 0.07 0.12 0.09 0.16 0.29 0.47 0.30 0.37 0.27 0.26 0.16 0.36 0.40 0.46 0.24 0.20 0.28 0.29 0.38 0.16 0.18 0.14 0.09 0.27 0.21 0.24 0.37 0.26 0.34 0.24 0.17 0.34 0.35 0.32 0.27 0.59 0.43 0.45 0.54 0.31 0.54 0.79 0.61 0.34 0.39 0.42 0.81 0.67 0.47 0.45 0.35 0.60 0.49 0.21 0.39 0.41 0.58 0.36 0.13 0.08 0.13 0.12 0.46 0.70 0.24 0.37 0.26 0.25 0.24 0.06 0.02 0.01
0.00 0.00 0.00 0.00 0.00 0.00 0.00 0.00 0.00 0.00 0.00 0.00 0.00 0.00 0.00 0.00 0.00 0.01 0.01 0.00 0.00 0.00 0.00 0.02 0.03 0.06 0.08 0.09 0.25 0.45 0.31 0.30 0.41 0.48 0.17 0.31 0.46 0.75 0.27 0.23 0.17 0.23 0.34 0.20 0.33 0.24 0.32 0.38 0.51 0.20 0.17 0.07 0.07 0.16 0.25 0.28 0.27 0.47 0.45 0.43 0.47 0.45 0.26 0.53 0.54 0.33 0.50 0.32 0.39 0.40 0.30 0.37 0.82 0.75 0.59 0.59 0.39 0.35 0.31 0.22 0.68 1.03 0.67 0.41 0.21 0.21 0.11 0.67 0.53 0.55 0.56 0.34 0.25 0.38 0.29 0.02 0.01
0.00 0.00 0.00 0.00 0.00 0.00 0.00 0.00 0.00 0.00 0.00 0.00 0.00 0.00 0.00 0.00 0.00 0.00 0.01 0.01 0.00 0.00 0.01 0.01 0.02 0.05 0.07 0.06 0.26 0.44 0.31 0.37 0.68 0.62 0.47 0.43 0.46 0.33 0.25 0.25 0.30 0.28 0.25 0.26 0.46 0.48 0.46 0.89 0.60 0.22 0.19 0.08 0.20 0.22 0.26 0.24 0.24 0.14 0.35 0.56 0.39 0.43 0.20 0.20 0.35 0.23 0.45 0.67 0.67 0.51 0.60 0.34 0.42 0.70 0.35 0.76 0.45 0.52 0.23 0.47 0.70 0.85 0.48 0.39 0.31 0.41 0.26 0.47 0.58 0.41 0.48 0.37 0.47 0.42 0.15 0.02 0.00
0.00 0.00 0.00 0.00 0.00 0.00 0.00 0.00 0.00 0.00 0.00 0.00 0.00 0.00 0.00 0.00 0.00 0.00 0.00 0.00 0.00 0.00 0.00 0.01 0.01 0.02 0.06 0.06 0.14 0.20 0.35 0.45 0.71 0.93 0.78 1.09 0.76 0.85 0.97 0.54 0.40 0.55 0.34 0.17 0.55 0.93 0.66 0.27 0.24 0.13 0.15 0.11 0.18 0.14 0.15 0.07 0.03 0.02 0.04 0.25 0.43 0.16 0.34 0.27 0.68 0.41 0.51 0.76 0.74 0.51 0.57 0.27 0.33 0.53 0.58 0.39 0.24 0.18 0.18 0.63 0.41 0.49 0.86 0.87 0.39 0.43 0.37 0.39 0.36 0.22 0.28 0.18 0.13 0.08 0.03 0.03 0.00
0.00 0.00 0.00 0.00 0.00 0.00 0.00 0.00 0.00 0.00 0.00 0.00 0.00 0.00 0.00 0.00 0.00 0.00 0.00 0.00 0.01 0.01 0.01 0.01 0.02 0.06 0.05 0.10 0.14 0.49 0.35 0.78 0.79 0.72 0.88 0.62 0.48 0.59 0.33 0.37 0.45 0.43 0.18 0.34 0.33 0.28 0.36 0.41 0.72 0.44 0.26 0.24 0.12 0.06 0.02 0.01 0.04 0.02 0.02 0.06 0.10 0.12 0.25 0.25 0.31 0.47 0.89 0.93 0.45 0.59 0.69 0.29 0.27 0.46 0.43 0.39 0.25 0.19 0.16 0.36 0.44 0.45 0.79 0.70 0.51 0.45 0.20 0.41 0.28 0.24 0.47 0.16 0.09 0.44 0.24 0.06 0.05
0.00 0.00 0.00 0.00 0.00 0.00 0.00 0.00 0.00 0.00 0.00 0.00 0.00 0.00 0.00 0.00 0.00 0.00 0.00 0.00 0.00 0.00 0.02 0.03 0.07 0.03 0.16 0.11 0.17 0.18 0.28 0.20 0.85 0.67 0.50 0.32 0.46 0.35 0.32 0.23 0.17 0.38 0.19 0.17 0.60 0.33 0.20 0.22 0.15 0.41 0.17 0.14 0.03 0.05 0.01 0.01 0.08 0.09 0.03 0.07 0.03 0.07 0.32 0.49 0.66 0.71 0.34 0.40 0.70 0.66 0.70 0.55 0.58 0.61 0.69 0.41 0.47 0.41 0.16 0.28 0.25 0.54 0.78 0.98 0.64 0.33 0.54 0.54 0.32 0.48 0.46 0.25 0.10 0.38 0.47 0.16 0.24
0.00 0.00 0.00 0.00 0.00 0.00 0.00 0.00 0.00 0.00 0.00 0.00 0.00 0.00 0.00 0.00 0.00 0.00 0.00 0.00 0.00 0.00 0.01 0.03 0.05 0.04 0.12 0.25 0.11 0.09 0.13 0.15 0.17 0.21 0.28 0.16 0.17 0.16 0.14 0.41 0.25 0.34 0.25 0.68 0.31 0.29 0.20 0.08 0.06 0.28 0.57 0.32 0.18 0.04 0.03 0.04 0.03 0.03 0.04 0.07 0.04 0.12 0.13 0.36 0.30 0.42 0.43 0.38 0.36 0.28 0.36 0.43 0.51 0.52 0.45 0.52 0.28 0.22 0.23 0.41 0.58 0.55 0.47 1.11 0.52 0.84 1.10 0.56 0.48 0.69 0.82 0.45 0.27 0.21 0.26 0.21 0.62
0.00 0.00 0.00 0.00 0.00 0.00 0.00 0.00 0.00 0.00 0.00 0.00 0.00 0.00 0.00 0.00 0.00 0.01 0.01 0.00 0.01 0.00 0.01 0.01 0.03 0.21 0.10 0.34 0.24 0.10 0.12 0.22 0.14 0.08 0.15 0.37 0.37 0.45 0.33 0.32 0.29 0.49 0.41 0.37 0.16 0.25 0.19 0.17 0.11 0.34 0.40 0.28 0.10 0.20 0.09 0.07 0.03 0.06 0.04 0.05 0.08 0.05 0.07 0.10 0.16 0.15 0.26 0.29 0.27 0.38 0.70 0.30 0.44 0.35 0.33 0.32 0.46 0.21 0.21 0.21 0.68 0.55 0.91 0.95 0.92 1.07 0.93 0.90 0.79 0.56 0.42 0.45 0.39 0.58 0.44 0.58 0.74
0.00 0.00 0.00 0.00 0.00 0.00 0.00 0.00 0.00 0.00 0.00 0.00 0.00 0.00 0.00 0.00 0.00 0.01 0.02 0.00 0.01 0.01 0.01 0.01 0.01 0.03 0.05 0.14 0.09 0.18 0.08 0.10 0.06 0.09 0.16 0.14 0.14 0.15 0.06 0.17 0.28 0.23 0.24 0.38 0.58 0.28 0.14 0.12 0.23 0.40 0.32 0.16 0.36 0.32 0.09 0.07 0.07 0.08 0.06 0.07 0.04 0.09 0.05 0.05 0.04 0.08 0.10 0.11 0.11 0.29 0.23 0.15 0.31 0.24 0.25 0.31 0.40 0.25 0.27 0.37 0.35 0.67 0.86 0.63 1.14 0.82 1.31 1.20 0.92 0.54 0.54 0.40 0.30 0.43 0.62 0.67 0.35
0.00 0.00 0.00 0.00 0.00 0.00 0.00 0.00 0.00 0.00 0.00 0.00 0.00 0.00 0.00 0.00 0.00 0.01 0.00 0.01 0.01 0.01 0.00 0.00 0.01 0.02 0.08 0.07 0.03 0.07 0.14 0.13 0.08 0.08 0.13 0.06 0.02 0.04 0.06 0.12 0.39 0.35 0.53 0.43 0.86 0.84 0.30 0.16 0.20 0.26 0.18 0.11 0.23 0.48 0.41 0.22 0.08 0.04 0.05 0.06 0.07 0.03 0.03 0.02 0.03 0.03 0.04 0.06 0.06 0.13 0.24 0.22 0.26 0.11 0.20 0.27 0.28 0.27 0.38 0.28 0.38 0.72 0.61 0.79 0.63 0.86 0.96 0.68 0.60 0.76 0.54 0.47 0.28 0.45 0.71 0.81 0.48
0.00 0.00 0.00 0.00 0.00 0.00 0.00 0.00 0.00 0.00 0.00 0.00 0.00 0.00 0.00 0.00 0.00 0.01 0.02 0.01 0.01 0.00 0.00 0.01 0.01 0.03 0.04 0.02 0.06 0.05 0.04 0.10 0.04 0.11 0.11 0.09 0.02 0.06 0.12 0.24 0.54 0.44 0.41 1.13 0.67 0.70 0.44 0.50 0.63 0.29 0.30 0.97 0.53 0.30 0.30 0.30 0.08 0.02 0.03 0.09 0.03 0.02 0.02 0.01 0.01 0.01 0.02 0.02 0.03 0.04 0.07 0.11 0.11 0.06 0.11 0.19 0.17 0.07 0.10 0.22 0.39 0.31 0.44 0.31 0.33 0.48 0.50 0.44 0.94 0.94 0.92 0.61 0.54 0.47 0.52 0.86 0.49
0.00 0.00 0.00 0.00 0.00 0.00 0.00 0.00 0.00 0.00 0.00 0.00 0.00 0.00 0.00 0.00 0.00 0.00 0.01 0.01 0.01 0.01 0.01 0.01 0.01 0.01 0.01 0.02 0.02 0.03 0.04 0.06 0.03 0.04 0.10 0.09 0.07 0.11 0.13 0.20 0.22 0.22 0.55 1.07 0.48 0.42 0.23 0.63 0.29 0.18 0.32 0.46 0.56 0.40 0.27 0.15 0.07 0.02 0.02 0.02 0.01 0.01 0.00 0.00 0.00 0.00 0.01 0.01 0.02 0.03 0.05 0.05 0.06 0.07 0.04 0.07 0.07 0.11 0.19 0.13 0.06 0.10 0.16 0.47 0.52 0.31 0.40 0.40 0.55 0.77 1.04 1.23 1.04 0.92 1.09 0.87 1.06
0.00 0.00 0.00 0.00 0.00 0.00 0.00 0.00 0.00 0.00 0.00 0.00 0.00 0.00 0.00 0.00 0.00 0.00 0.01 0.01 0.01 0.00 0.01 0.01 0.01 0.01 0.00 0.02 0.03 0.02 0.04 0.08 0.04 0.06 0.05 0.07 0.16 0.13 0.15 0.11 0.12 0.16 0.72 1.02 0.49 0.35 0.22 0.35 0.68 0.48 0.18 0.29 0.28 0.43 0.31 0.13 0.02 0.01 0.00 0.00 0.00 0.00 0.00 0.00 0.00 0.00 0.00 0.01 0.01 0.02 0.04 0.07 0.03 0.05 0.04 0.04 0.04 0.03 0.07 0.08 0.07 0.13 0.07 0.13 0.16 0.32 0.42 0.27 0.54 1.07 0.91 0.79 0.78 0.69 1.05 1.03 1.27
0.00 0.00 0.00 0.00 0.00 0.00 0.00 0.00 0.00 0.00 0.00 0.00 0.00 0.00 0.00 0.00 0.00 0.00 0.01 0.01 0.00 0.00 0.00 0.00 0.01 0.01 0.01 0.01 0.03 0.03 0.08 0.09 0.16 0.02 0.06 0.07 0.05 0.14 0.15 0.23 0.48 0.65 1.26 0.41 0.38 0.34 0.53 0.35 0.54 0.50 0.22 0.26 0.27 0.25 0.15 0.06 0.01 0.01 0.01 0.00 0.00 0.00 0.00 0.00 0.00 0.00 0.00 0.00 0.00 0.01 0.02 0.02 0.03 0.09 0.03 0.04 0.06 0.06 0.03 0.03 0.05 0.07 0.08 0.10 0.09 0.17 0.12 0.23 0.35 0.63 1.09 0.72 1.10 1.18 1.05 1.32 0.94
0.00 0.00 0.00 0.00 0.00 0.00 0.02 0.00 0.00 0.00 0.00 0.00 0.00 0.00 0.00 0.00 0.00 0.00 0.01 0.02 0.01 0.01 0.00 0.00 0.01 0.01 0.01 0.02 0.02 0.02 0.10 0.05 0.11 0.04 0.03 0.04 0.06 0.22 0.32 0.26 0.52 1.15 1.84 0.59 0.36 0.31 0.41 0.45 0.56 0.60 0.60 0.22 0.23 0.14 0.03 0.01 0.00 0.01 0.00 0.00 0.00 0.00 0.00 0.00 0.00 0.00 0.00 0.00 0.00 0.00 0.00 0.01 0.01 0.01 0.03 0.07 0.11 0.04 0.05 0.03 0.05 0.11 0.04 0.05 0.10 0.12 0.09 0.17 0.25 0.35 0.67 0.57 0.43 1.10 0.74 1.14 1.03
0.00 0.00 0.00 0.00 0.00 0.00 0.00 0.05 0.00 0.00 0.00 0.00 0.00 0.00 0.01 0.00 0.00 0.01 0.01 0.00 0.00 0.00 0.01 0.01 0.00 0.01 0.01 0.02 0.02 0.03 0.01 0.02 0.16 0.12 0.07 0.08 0.27 0.57 0.69 0.87 1.44 1.81 1.31 0.98 1.14 0.77 0.32 0.32 0.63 0.56 0.20 0.13 0.20 0.33 0.17 0.01 0.00 0.01 0.00 0.00 0.00 0.00 0.00 0.00 0.00 0.00 0.00 0.00 0.00 0.00 0.00 0.00 0.00 0.00 0.01 0.01 0.02 0.02 0.02 0.02 0.03 0.03 0.03 0.07 0.04 0.06 0.05 0.10 0.17 0.38 0.28 0.46 0.38 0.61 1.49 0.53 0.77
0.00 0.00 0.00 0.00 0.00 0.00 0.00 0.00 0.00 0.00 0.02 0.00 0.00 0.01 0.03 0.00 0.00 0.00 0.01 0.01 0.00 0.00 0.01 0.01 0.00 0.00 0.01 0.01 0.01 0.15 0.19 0.10 0.07 0.07 0.10 0.09 0.25 0.39 1.41 2.14 1.70 1.01 0.74 1.78 1.46 1.00 0.61 0.56 0.52 0.26 0.18 0.28 0.11 0.20 0.20 0.11 0.00 0.00 0.00 0.00 0.00 0.00 0.00 0.00 0.00 0.00 0.00 0.00 0.00 0.00 0.00 0.00 0.00 0.00 0.00 0.00 0.01 0.00 0.00 0.00 0.00 0.00 0.01 0.02 0.03 0.04 0.02 0.04 0.04 0.05 0.12 0.25 0.41 0.51 0.59 0.74 0.86
0.00 0.01 0.00 0.00 0.00 0.00 0.00 0.00 0.00 0.00 0.01 0.06 0.00 0.02 0.03 0.00 0.00 0.00 0.00 0.00 0.00 0.00 0.00 0.00 0.00 0.00 0.00 0.05 0.03 0.03 0.01 0.04 0.18 0.21 0.50 0.33 0.41 0.74 1.65 1.75 1.34 0.81 0.84 0.47 0.78 1.11 1.08 1.04 0.54 0.20 0.13 0.23 0.24 0.15 0.22 0.16 0.06 0.00 0.00 0.00 0.00 0.00 0.00 0.00 0.00 0.00 0.00 0.00 0.00 0.00 0.00 0.00 0.00 0.00 0.00 0.00 0.00 0.00 0.00 0.00 0.00 0.00 0.00 0.01 0.01 0.02 0.04 0.03 0.04 0.08 0.04 0.08 0.14 0.16 0.28 0.33 0.48
0.01 0.01 0.00 0.00 0.00 0.00 0.00 0.00 0.00 0.01 0.00 0.00 0.00 0.00 0.03 0.01 0.02 0.00 0.00 0.00 0.00 0.01 0.00 0.00 0.00 0.01 0.03 0.04 0.05 0.17 0.02 0.01 0.27 0.29 0.75 0.83 0.63 1.27 1.43 1.30 1.29 1.10 0.95 0.63 0.95 1.16 0.81 0.50 0.33 0.17 0.17 0.12 0.12 0.28 0.15 0.02 0.01 0.00 0.00 0.00 0.00 0.00 0.00 0.00 0.00 0.00 0.00 0.00 0.00 0.00 0.00 0.00 0.00 0.00 0.00 0.00 0.00 0.00 0.00 0.00 0.01 0.01 0.01 0.01 0.01 0.01 0.03 0.03 0.05 0.06 0.05 0.06 0.04 0.05 0.12 0.18 0.14
0.01 0.00 0.00 0.00 0.00 0.00 0.00 0.00 0.00 0.02 0.01 0.05 0.00 0.00 0.00 0.02 0.05 0.00 0.00 0.00 0.00 0.02 0.01 0.02 0.01 0.01 0.12 0.09 0.09 0.03 0.02 0.04 0.69 0.66 0.84 0.97 1.43 1.25 0.77 0.93 0.89 1.10 1.00 0.47 0.44 0.69 1.38 0.91 0.37 0.27 0.78 0.28 0.34 0.25 0.16 0.03 0.01 0.00 0.00 0.00 0.00 0.00 0.00 0.00 0.00 0.00 0.00 0.00 0.00 0.00 0.00 0.00 0.00 0.00 0.00 0.00 0.00 0.00 0.00 0.01 0.01 0.01 0.02 0.01 0.01 0.02 0.02 0.02 0.03 0.05 0.04 0.08 0.05 0.03 0.05 0.05 0.06
0.00 0.00 0.00 0.00 0.00 0.00 0.00 0.01 0.01 0.05 0.00 0.02 0.03 0.07 0.01 0.03 0.01 0.01 0.01 0.01 0.02 0.08 0.06 0.04 0.04 0.05 0.04 0.08 0.17 0.06 0.06 0.19 0.13 0.24 0.12 0.44 0.59 1.39 1.43 1.63 1.24 1.37 1.02 1.16 0.80 1.05 1.02 0.81 1.15 0.45 0.54 0.69 0.65 0.21 0.32 0.19 0.03 0.01 0.00 0.00 0.00 0.00 0.00 0.00 0.00 0.00 0.00 0.00 0.00 0.00 0.00 0.00 0.00 0.00 0.00 0.00 0.00 0.00 0.00 0.01 0.01 0.01 0.01 0.01 0.01 0.02 0.01 0.01 0.01 0.01 0.02 0.05 0.03 0.04 0.03 0.04 0.07
0.00 0.00 0.00 0.00 0.00 0.01 0.01 0.00 0.05 0.05 0.00 0.01 0.02 0.01 0.00 0.07 0.06 0.02 0.02 0.00 0.05 0.00 0.01 0.02 0.01 0.07 0.09 0.16 0.15 0.09 0.05 0.16 0.24 0.17 0.37 0.24 0.47 0.79 0.90 0.96 1.58 1.60 1.43 1.08 1.37 1.38 0.69 0.42 0.69 0.64 0.35 0.51 0.43 0.26 0.31 0.11 0.01 0.01 0.01 0.00 0.00 0.00 0.00 0.00 0.00 0.00 0.00 0.00 0.00 0.00 0.00 0.00 0.00 0.00 0.00 0.00 0.00 0.00 0.00 0.00 0.00 0.00 0.00 0.00 0.00 0.01 0.01 0.01 0.02 0.01 0.01 0.02 0.04 0.04 0.04 0.06 0.02
0.00 0.00 0.02 0.00 0.02 0.00 0.01 0.03 0.01 0.07 0.00 0.02 0.01 0.00 0.02 0.06 0.06 0.03 0.01 0.00 0.01 0.01 0.01 0.01 0.01 0.00 0.00 0.06 0.05 0.06 0.07 0.16 0.37 0.32 0.14 0.29 0.67 0.82 1.68 2.04 1.73 1.85 1.40 0.99 0.78 1.05 1.07 0.44 0.84 0.74 0.97 0.55 0.43 0.24 0.19 0.03 0.01 0.01 0.00 0.00 0.00 0.00 0.00 0.00 0.00 0.00 0.00 0.00 0.00 0.00 0.00 0.00 0.00 0.00 0.00 0.00 0.00 0.00 0.00 0.00 0.00 0.00 0.00 0.00 0.00 0.00 0.00 0.00 0.00 0.00 0.01 0.02 0.02 0.02 0.02 0.03 0.01
0.00 0.00 0.02 0.22 0.17 0.01 0.05 0.04 0.01 0.00 0.00 0.03 0.01 0.01 0.01 0.01 0.13 0.03 0.03 0.01 0.00 0.01 0.02 0.03 0.01 0.00 0.00 0.02 0.02 0.06 0.11 0.41 0.44 0.10 0.15 0.25 0.48 0.62 0.50 0.64 0.80 0.77 1.22 1.31 1.22 0.72 0.45 0.56 0.91 1.26 0.93 0.63 0.40 0.28 0.21 0.07 0.00 0.01 0.00 0.00 0.00 0.00 0.00 0.00 0.00 0.00 0.00 0.00 0.00 0.00 0.00 0.00 0.00 0.00 0.00 0.00 0.00 0.00 0.00 0.00 0.00 0.00 0.00 0.00 0.00 0.00 0.00 0.00 0.00 0.00 0.00 0.01 0.02 0.02 0.03 0.08 0.08
0.00 0.01 0.11 0.06 0.11 0.06 0.02 0.04 0.03 0.07 0.02 0.01 0.05 0.03 0.02 0.07 0.06 0.02 0.02 0.01 0.01 0.03 0.02 0.01 0.06 0.01 0.01 0.01 0.03 0.02 0.20 0.11 0.06 0.18 0.16 0.12 0.33 0.19 0.24 0.41 0.89 1.33 1.22 0.84 0.78 0.24 0.42 1.25 1.93 1.44 1.17 0.66 0.37 0.44 0.16 0.06 0.03 0.01 0.00 0.00 0.00 0.00 0.01 0.00 0.00 0.01 0.00 0.01 0.01 0.01 0.00 0.00 0.00 0.00 0.00 0.00 0.00 0.00 0.00 0.00 0.00 0.00 0.00 0.00 0.00 0.00 0.00 0.00 0.00 0.00 0.00 0.00 0.00 0.00 0.00 0.01 0.01
0.01 0.00 0.01 0.10 0.14 0.07 0.01 0.03 0.07 0.02 0.10 0.01 0.01 0.00 0.02 0.01 0.28 0.04 0.02 0.03 0.01 0.01 0.03 0.04 0.00 0.02 0.01 0.01 0.01 0.19 0.16 0.16 0.14 0.39 0.06 0.07 0.12 0.09 0.08 0.43 0.84 0.33 0.33 0.56 0.40 0.19 0.25 1.87 1.75 1.64 1.19 0.32 0.43 0.34 0.15 0.06 0.04 0.04 0.02 0.16 0.18 0.06 0.08 0.02 0.04 0.04 0.02 0.00 0.00 0.01 0.00 0.00 0.00 0.00 0.00 0.00 0.00 0.00 0.00 0.00 0.00 0.00 0.00 0.00 0.00 0.00 0.00 0.00 0.00 0.00 0.00 0.00 0.00 0.00 0.00 0.00 0.00
0.00 0.00 0.01 0.03 0.02 0.01 0.06 0.30 0.03 0.03 0.03 0.02 0.01 0.01 0.07 0.24 0.10 0.19 0.02 0.01 0.00 0.02 0.02 0.02 0.02 0.00 0.01 0.04 0.04 0.04 0.08 0.23 0.30 0.24 0.13 0.05 0.07 0.03 0.03 0.08 0.07 0.14 0.51 0.78 0.65 0.70 1.40 2.32 1.93 1.25 0.85 0.43 0.57 0.81 0.75 0.53 0.18 0.04 0.01 0.02 0.03 0.02 0.00 0.02 0.00 0.00 0.00 0.00 0.00 0.00 0.00 0.00 0.00 0.00 0.00 0.00 0.00 0.00 0.00 0.00 0.00 0.00 0.00 0.00 0.00 0.00 0.00 0.00 0.00 0.00 0.00 0.00 0.00 0.00 0.00 0.00 0.00
0.17 0.00 0.06 0.03 0.01 0.00 0.02 0.00 0.00 0.00 0.00 0.01 0.01 0.02 0.01 0.02 0.01 0.01 0.15 0.21 0.08 0.01 0.01 0.00 0.01 0.06 0.06 0.11 0.15 0.12 0.22 0.32 0.45 0.37 0.42 0.38 0.31 0.10 0.10 0.44 0.60 0.22 0.82 0.93 1.22 1.52 1.67 1.77 1.42 0.26 0.24 0.67 0.89 1.14 0.57 0.72 0.27 0.16 0.06 0.05 0.01 0.00 0.01 0.00 0.00 0.00 0.00 0.00 0.00 0.00 0.00 0.00 0.00 0.00 0.00 0.00 0.00 0.00 0.00 0.00 0.00 0.00 0.00 0.00 0.00 0.00 0.00 0.00 0.00 0.00 0.00 0.00 0.00 0.00 0.00 0.00 0.00
0.00 0.02 0.04 0.00 0.00 0.02 0.03 0.10 0.05 0.00 0.00 0.01 0.01 0.02 0.08 0.02 0.23 0.01 0.03 0.14 0.09 0.09 0.10 0.08 0.06 0.16 0.10 0.11 0.09 0.09 0.15 0.30 0.59 0.88 0.90 0.92 0.65 1.02 1.12 0.75 0.48 0.49 1.17 1.12 0.74 1.13 0.86 1.12 1.06 1.08 1.25 1.03 1.73 0.80 0.28 0.15 0.14 0.02 0.01 0.01 0.02 0.01 0.00 0.00 0.00 0.00 0.00 0.01 0.00 0.00 0.00 0.00 0.00 0.00 0.00 0.00 0.00 0.00 0.00 0.00 0.00 0.00 0.00 0.00 0.00 0.00 0.00 0.00 0.00 0.00 0.00 0.00 0.00 0.00 0.00 0.00 0.00
0.00 0.04 0.01 0.01 0.06 0.04 0.01 0.00 0.00 0.02 0.01 0.04 0.02 0.05 0.04 0.06 0.17 0.04 0.05 0.09 0.07 0.09 0.04 0.05 0.08 0.04 0.05 0.02 0.07 0.12 0.34 0.47 0.41 0.26 0.47 0.52 0.20 0.13 0.17 0.33 0.45 0.44 0.58 0.23 0.28 0.14 0.07 0.16 0.15 0.58 1.39 1.76 1.41 0.16 0.05 0.29 0.28 0.16 0.03 0.06 0.05 0.01 0.02 0.02 0.03 0.00 0.00 0.03 0.04 0.02 0.01 0.00 0.00 0.00 0.00 0.00 0.00 0.00 0.00 0.00 0.00 0.00 0.00 0.00 0.00 0.00 0.00 0.00 0.00 0.00 0.00 0.00 0.00 0.00 0.00 0.00 0.00
0.00 0.00 0.00 0.00 0.00 0.05 0.04 0.02 0.09 0.01 0.15 0.02 0.01 0.03 0.11 0.09 0.24 0.02 0.10 0.07 0.06 0.08 0.13 0.08 0.08 0.09 0.03 0.08 0.09 0.14 0.28 0.36 0.39 0.35 0.36 0.43 0.64 1.04 0.73 0.25 0.23 0.32 0.34 0.31 0.23 0.20 0.09 0.06 0.06 0.14 0.41 0.88 0.78 0.83 0.48 0.12 0.22 0.12 0.05 0.01 0.02 0.01 0.00 0.03 0.02 0.00 0.00 0.01 0.00 0.00 0.00 0.00 0.00 0.00 0.00 0.00 0.00 0.00 0.00 0.00 0.00 0.00 0.00 0.00 0.00 0.00 0.00 0.00 0.00 0.00 0.00 0.00 0.00 0.00 0.00 0.00 0.00
0.01 0.00 0.00 0.00 0.01 0.07 0.01 0.06 0.03 0.06 0.08 0.04 0.06 0.03 0.21 0.13 0.03 0.06 0.06 0.07 0.10 0.05 0.05 0.08 0.10 0.10 0.11 0.13 0.13 0.20 0.10 0.01 0.03 0.06 0.05 0.03 0.05 0.02 0.08 0.34 0.26 0.50 0.26 0.21 0.23 0.30 0.13 0.07 0.11 0.06 0.04 0.05 0.17 0.52 0.56 0.41 0.18 0.44 0.16 0.18 0.20 0.26 0.22 0.07 0.09 0.04 0.03 0.07 0.06 0.02 0.02 0.00 0.00 0.00 0.00 0.00 0.00 0.00 0.00 0.00 0.00 0.00 0.00 0.00 0.00 0.00 0.00 0.00 0.00 0.00 0.00 0.00 0.00 0.00 0.00 0.00 0.00
0.00 0.01 0.03 0.02 0.08 0.11 0.05 0.06 0.00 0.07 0.01 0.05 0.04 0.09 0.13 0.26 0.03 0.04 0.07 0.03 0.04 0.10 0.07 0.05 0.12 0.01 0.03 0.14 0.03 0.12 0.27 0.07 0.07 0.18 0.10 0.05 0.03 0.04 0.01 0.02 0.06 0.15 0.25 0.10 0.11 0.07 0.06 0.05 0.07 0.07 0.08 0.18 0.29 0.86 1.11 0.97 0.92 0.96 0.98 0.63 0.52 0.17 0.42 0.34 0.27 0.10 0.13 0.05 0.02 0.01 0.00 0.00 0.01 0.02 0.00 0.00 0.00 0.00 0.00 0.00 0.00 0.00 0.00 0.00 0.00 0.00 0.00 0.00 0.00 0.00 0.00 0.00 0.00 0.00 0.00 0.00 0.00